{"data":{"norad_id":66914,"intl_designator":"2025-284B","name":"2025-284B","alt_names":[],"object_type":"PAYLOAD","status":"ACTIVE","operator":null,"country":"PRC","launch_date":"2025-12-05","launch_site_code":"JSC","launch_vehicle":null,"mission":null,"orbit_class":"UNKNOWN","rcs_meters":null,"size_class":null,"mass_kg":null,"dimensions":null,"purposes":[],"wikipedia_slug":null,"has_3d_model":false,"image_url":null,"decayed_at":null,"tle_current":{"epoch":"2026-05-24T23:44:47.830272Z","epoch_age_seconds":72083,"freshness":"FRESH","line1":"1 66914U 25284B   26144.98944248  .00000126  00000+0  83029-4 0  9996","line2":"2 66914  80.3971 313.4426 0010739 300.3721  59.6377 13.97316579 24245","mean_motion":13.97316579,"eccentricity":0.0010739,"inclination_deg":80.3971,"raan_deg":313.4426,"arg_perigee_deg":300.3721,"mean_anomaly_deg":59.6377,"bstar":8.3029e-5,"rev_number":2424,"period_min":103.05467076262,"perigee_km":895.28290229912,"apogee_km":910.9215479068,"semimajor_km":7281.239225103,"source":"CELESTRAK","updated_at":"2026-05-25T13:38:06.592947Z"}}}